Overview Statistics Trail Chart Weather Telemetry Raw packets
 

This is the latest recevied weather packets stored in our database for station/object KW4UJ. If no packets are shown the sender has not sent any weather packets the latest 10 day(s).

<< 95 96 97 98 99 100 101 >>
Time Temp. Humidity Pressure Rain* Wind** Luminosity Snow
1787922476 23.33° C 83% 1016.1 hPa 0 mm - 69 W/m² -
1787922175 24.44° C 81% 1016.1 hPa 0 mm - 98 W/m² -
1787921872 24.44° C 81% 1016 hPa 0 mm - 220 W/m² -
1787921568 23.89° C 81% 1015.7 hPa 0 mm - 188 W/m² -
1787921261 23.33° C 84% 1015.9 hPa 0 mm - 181 W/m² -
1787920958 23.33° C 84% 1016 hPa 0 mm - 68 W/m² -
1787920653 23.89° C 84% 1016 hPa 0 mm - 54 W/m² -
1787920352 23.33° C 85% 1015.7 hPa 0 mm - 70 W/m² -
1787920049 23.33° C 86% 1015.6 hPa 0 mm - 79 W/m² -
1787919745 22.78° C 88% 1015.7 hPa 0 mm - 84 W/m² -
1787919443 22.78° C 90% 1015.7 hPa 0 mm - 94 W/m² -
1787919140 22.22° C 90% 1015.9 hPa 0 mm - 82 W/m² -
1787918839 22.22° C 90% 1015.8 hPa 0 mm - 49 W/m² -
1787918534 22.22° C 91% 1015.8 hPa 0 mm - 51 W/m² -
1787918232 22.22° C 92% 1015.7 hPa 0 mm - 63 W/m² -
1787917932 22.22° C 93% 1015.7 hPa 0 mm - 58 W/m² -
1787917628 21.67° C 94% 1015.4 hPa 0 mm - 66 W/m² -
1787917324 21.67° C 94% 1015.6 hPa 0 mm - 63 W/m² -
1787917024 21.67° C 94% 1015.5 hPa 0 mm - 41 W/m² -
1787916718 21.67° C 95% 1015.3 hPa 0 mm - 24 W/m² -
1787916413 21.11° C 95% 1015.2 hPa 0 mm - 21 W/m² -
1787916109 21.11° C 95% 1015.2 hPa 0 mm - 26 W/m² -
1787915803 21.11° C 95% 1015.1 hPa 0 mm - 28 W/m² -
1787915499 21.11° C 95% 1015 hPa 0 mm - 24 W/m² -
1787915199 21.11° C 95% 1014.9 hPa 0 mm - 22 W/m² -

* Rain latest hour (hover to see other rain measurements)
** Current wind speed in m/s (hover to see current wind gust speed)